Showing default

HULIANWANG DIGUI-112, 66922

Orbit data source: Space-Track

HULIANWANG DIGUI-112, 66922 is a payload satellite owned by Zhongguo Xingwang (CN) in LEO that was launched on Sat, 06 Dec 2025 UTC via a CHANG ZHENG 8A launch vehicle from the Wenchang Satellite Launch Center (WSC). Payload-class satellites include a variety of spacecraft equipped with specific instruments for various scientific and technological missions. These include communications satellites like Starlink; space stations such as the ISS; scientific satellites like the Hubble; Earth observation satellites from companies like Planet Labs, Umbra, and HawkEye 360; GPS; miniature CubeSats for education and research; and military/defense satellites.

Loading next visibility...
Identifier
66922, 2025-285H
Orbit
LEO
Country
Flag of CNCN / PRC
Related business
Manufacturer
CAST
Mission
Operational Civil Communications
Bus & Motor
XINGWANG C, Unknown motor
Mass
~700 kg wet, ~700 kg dry
Launch date (UTC)
2025-12-06 (6 months ago)
Launch vehicle
CHANG ZHENG 8A
Launch site
Wenchang Satellite Launch Center (WSC)
Object type
Payload
Rocket body
Debris
Shape & HBR
Box + 2 Pan, 14.5 m
Radar Cross Section
5.935 m², Large (>1 m²)

Expand to show TLE details & history
Last TLE update: 17 hours ago

TLE from 17 hours ago
0 HULIANWANG DIGUI-112
1 66922U 25285H   26171.19984278 -.00000175  00000-0 -11076-3 0  9995
2 66922  50.0082 134.9583 0001164 304.9856  55.0906 13.29323942 26463
Epoch: 2026-06-20T04:47Z
TLE epoch observation values (Epoch: 2026-06-20T04:47:46.416Z)
Latitude
-0.00007°
Longitude
154.59696°
Altitude
1,149.32 km
Speed
7.28 km/s
True Right ascension
08h 59m 49s
True Declination
0° 00' 00"
Sunlit
Object was in daylight at epoch
Visualization orbit readout
Latitude
Unknown
Longitude
Unknown
Altitude
Unknown
Speed
Unknown
Apparent Right ascension
Unknown
Apparent Declination
Unknown
Sunlit
N/A
Visualization observer readout
Local Sidereal Time
08:32:52
Azimuth
Unknown
Elevation
Unknown
Doppler factor
Unknown
Orbital elements
Apogee altitude
1,150.895 km
Perigee altitude
1,149.142 km
Semi-major axis
7,528.155 km
Eccentricity
0.00012
Inclination
50.0082°
RAAN
134.9583°
Arg. of periapsis
304.9856°
True anomaly
55.10154°
Mean anomaly
55.0906°
Eccentric anomaly
55.09607°
Mean motion
3.32285 °/min
Orbital period
108.34 mins
BSTAR
-0.00011076
Loading maneuver chart data...
Computing Atmospheric mass density...
Loading historical data...
Loading historical data...
Loading historical data...
Loading historical data...
Loading historical data...
Loading historical data...
Loading historical data...

Documentation

Showing up to 5 results
|